Total_Precipitation_Accumulation
3.37 3.49 3.24 3.15 3.22 3.27 3.50 3.83 3.93 3.60 3.37 3.11 2.63 2.35 2.39 2.64 3.00 2.65 2.49 2.40 2.20 2.08 1.96 1.89 1.91 1.98 2.10 2.27 2.47 2.68 2.80 2.87 2.95 2.93 3.01 3.23 3.40 3.58
3.18 3.21 3.14 3.04 3.14 3.09 3.16 3.41 3.70 3.76 3.46 3.06 2.74 2.38 2.48 2.40 2.67 2.59 2.60 2.56 2.25 2.02 1.81 1.72 1.74 1.79 1.89 1.98 2.03 2.18 2.23 2.27 2.39 2.49 2.51 2.55 2.59 2.74
2.70 2.73 2.79 3.02 3.12 3.04 3.10 3.16 3.43 3.76 3.64 3.31 2.99 2.77 2.69 2.66 2.51 2.47 2.38 2.26 2.06 1.92 1.69 1.59 1.60 1.64 1.70 1.77 1.88 2.02 2.13 2.18 2.20 2.27 2.35 2.40 2.42 2.47
2.54 2.69 2.56 2.76 2.93 2.86 2.99 3.01 3.19 3.56 3.72 3.78 3.65 3.34 3.10 2.91 2.85 2.63 2.20 2.02 2.06 2.05 1.83 1.66 1.58 1.56 1.56 1.60 1.71 1.88 2.00 2.08 2.10 2.08 2.11 2.18 2.30 2.43
2.51 2.53 2.39 2.55 2.62 2.71 2.78 2.84 3.04 3.29 3.63 3.56 3.52 3.44 3.31 3.04 3.14 2.80 2.47 2.40 1.98 1.96 1.93 1.76 1.66 1.59 1.56 1.58 1.65 1.72 1.81 1.93 1.95 2.04 2.11 2.16 2.23 2.32
2.36 2.29 2.18 2.20 2.31 2.54 2.57 2.72 2.95 3.18 3.40 3.34 3.36 3.47 3.56 3.55 3.55 3.23 3.02 2.78 2.39 1.95 2.00 1.86 1.81 1.69 1.56 1.49 1.51 1.60 1.74 1.88 1.93 1.97 2.04 2.09 2.17 2.26
2.18 2.03 1.85 1.93 2.07 2.16 2.06 2.43 2.80 2.94 3.02 3.09 3.16 3.35 3.49 3.73 3.53 3.39 3.28 3.24 2.92 2.46 2.39 2.05 1.92 1.72 1.56 1.49 1.49 1.48 1.53 1.68 1.76 1.85 1.96 2.01 2.10 2.22
2.09 2.07 1.94 1.87 1.81 1.82 1.76 1.94 2.29 2.47 2.68 2.97 3.07 3.26 3.34 3.36 3.54 3.52 3.49 3.35 3.05 2.72 2.70 2.62 2.48 2.34 2.05 1.69 1.60 1.47 1.38 1.48 1.64 1.75 1.87 1.98 2.05 2.14
2.05 2.08 1.82 1.67 1.73 1.59 1.66 1.73 1.78 1.90 2.08 2.47 2.75 2.85 2.92 2.97 3.27 3.34 3.35 3.22 3.12 2.97 3.00 2.98 2.87 2.62 2.18 1.99 1.93 1.66 1.53 1.48 1.55 1.63 1.68 1.80 1.94 2.05
1.75 1.79 1.84 1.80 1.72 1.77 1.74 1.70 1.59 1.63 1.75 1.77 1.92 2.16 2.45 2.71 2.91 3.09 3.38 3.33 3.25 3.16 3.10 3.16 3.01 2.86 2.46 2.18 2.08 1.83 1.72 1.63 1.64 1.66 1.67 1.69 1.76 1.85
1.73 1.75 1.85 1.89 1.95 1.85 1.77 1.77 1.74 1.72 1.69 1.67 1.59 1.70 1.89 2.03 2.23 2.52 2.88 3.20 3.39 3.37 3.15 3.23 3.16 3.18 3.09 2.68 2.29 2.12 1.87 1.74 1.70 1.68 1.66 1.66 1.72 1.82
2.03 2.00 1.92 1.78 1.81 1.73 1.68 1.74 1.69 1.67 1.59 1.55 1.49 1.46 1.46 1.61 1.82 2.04 2.37 2.76 3.02 3.17 3.10 3.23 3.38 3.73 3.87 3.31 2.70 2.30 2.08 2.01 1.89 1.74 1.69 1.72 1.85 1.80
1.96 1.90 1.78 1.63 1.49 1.44 1.40 1.50 1.59 1.55 1.55 1.58 1.61 1.59 1.62 1.65 1.73 1.84 2.17 2.46 2.61 2.51 2.53 2.94 3.16 3.46 3.78 3.66 3.37 2.99 2.65 2.41 2.18 2.00 1.94 1.97 2.03 1.96
2.01 1.97 1.82 1.66 1.45 1.36 1.20 1.26 1.34 1.29 1.35 1.54 1.60 1.61 1.63 1.65 1.74 1.88 2.11 2.32 2.51 2.49 2.51 2.77 2.98 3.18 3.26 3.18 3.15 3.18 3.15 2.99 2.75 2.54 2.30 2.34 2.28 2.33
1.82 1.99 1.87 1.58 1.35 1.24 1.21 1.14 1.05 1.04 1.21 1.34 1.41 1.51 1.56 1.66 1.80 1.98 2.22 2.39 2.44 2.39 2.31 2.50 2.78 3.03 3.15 2.99 2.83 2.79 2.87 2.87 2.79 2.77 2.73 2.62 2.49 2.43
1.66 1.68 1.64 1.49 1.30 1.29 1.32 1.20 1.08 1.15 1.23 1.26 1.35 1.47 1.55 1.63 1.76 1.86 2.06 2.30 2.44 2.31 2.28 2.40 2.62 2.89 2.93 2.87 2.77 2.63 2.66 2.75 2.79 2.89 2.95 2.85 2.71 2.61
1.64 1.64 1.58 1.57 1.43 1.37 1.44 1.44 1.42 1.47 1.43 1.36 1.39 1.42 1.47 1.53 1.59 1.72 1.90 2.03 2.15 2.15 2.15 2.25 2.40 2.61 2.65 2.67 2.67 2.48 2.45 2.44 2.59 2.92 3.17 3.09 2.79 2.63
1.60 1.64 1.74 1.72 1.67 1.67 1.67 1.63 1.60 1.56 1.56 1.59 1.58 1.54 1.54 1.56 1.55 1.62 1.75 1.85 1.89 1.95 2.02 2.06 2.22 2.42 2.47 2.40 2.22 2.14 2.12 2.14 2.21 2.48 2.76 2.92 2.76 2.57
1.63 1.73 1.88 1.89 1.85 1.84 1.75 1.69 1.73 1.67 1.67 1.69 1.68 1.68 1.72 1.73 1.70 1.72 1.81 1.92 1.92 1.88 1.92 2.08 2.17 2.30 2.30 2.18 1.99 1.77 1.90 2.03 2.12 2.16 2.21 2.31 2.36 2.26
1.59 1.81 1.99 2.00 2.00 1.97 1.87 1.78 1.78 1.76 1.72 1.70 1.70 1.69 1.73 1.81 1.83 1.82 1.84 1.91 1.92 1.89 1.91 1.96 2.03 2.08 2.15 2.14 2.03 1.85 1.67 1.83 1.97 2.01 1.97 1.97 1.92 1.97
1.75 1.87 1.93 1.96 1.96 1.90 1.80 1.76 1.79 1.76 1.72 1.75 1.76 1.76 1.76 1.85 1.86 1.83 1.84 1.93 1.86 1.78 1.77 1.79 1.84 1.93 2.04 2.18 2.07 1.82 1.68 1.66 1.77 1.83 1.89 1.98 1.92 1.84
1.72 1.73 1.73 1.74 1.77 1.80 1.81 1.84 1.90 1.88 1.86 1.83 1.77 1.74 1.75 1.81 1.84 1.87 1.88 1.88 1.84 1.78 1.70 1.68 1.71 1.79 1.91 2.05 2.02 1.87 1.79 1.76 1.75 1.77 1.78 1.81 1.80 1.73
1.67 1.68 1.67 1.64 1.62 1.69 1.78 1.81 1.86 1.89 1.85 1.79 1.79 1.81 1.78 1.83 1.83 1.81 1.77 1.72 1.72 1.73 1.78 1.78 1.77 1.80 1.84 1.94 2.05 2.02 1.89 1.89 1.91 1.83 1.62 1.56 1.48 1.36